Regional Weather Roundup
Issued by NWS

Home | Current Version | Previous Version | Text Only | Print | Product List | Glossary Off
Versions: 1 2 3 4 5 6 7 8 9 10 11 12 13 14 15 16 17 18 19 20 21 22 23 24 25 26 27 28 29 30 31 32 33 34 35 36 37 38 39 40 41 42 43 44 45 46 47 48 49 50

840
ASUS43 KDMX 172106
RWRIA

WEATHER ROUNDUP FOR IOWA
NATIONAL WEATHER SERVICE DES MOINES IA
400 PM CDT THU AUG 17 2017

NOTE: "FAIR" INDICATES FEW OR NO CLOUDS BELOW 12,000 FEET WITH NO
SIGNIFICANT WEATHER AND/OR OBSTRUCTIONS TO VISIBILITY.

* - THESE STATIONS ARE NOT NWS STATIONS...THUS NOT UNDER NWS
QUALITY CONTROL.  THEY ALSO DO NOT REPORT WEATHER SUCH
AS PRECIPITATION OR FOG.

IAZ001>003-012>014-020>022-031>034-043>046-172200-
   NORTHWEST IOWA

CITY           SKY/WX    TMP DP  RH WIND       PRES   REMARKS
SIOUX CITY     SUNNY     81  62  52 NW10      29.89S HX  82
SPENCER        MOSUNNY   79  61  53 NW20G26   29.86R HX  80
$$

IAZ055>058-069>071-079>083-090>094-172200-
   SOUTHWEST IOWA

CITY           SKY/WX    TMP DP  RH WIND       PRES   REMARKS
LAMONI         SUNNY     82  61  48 W16G28    29.89S HX  83
$$

IAZ047>049-059>061-072>074-084-172200-
   CENTRAL IOWA

CITY           SKY/WX    TMP DP  RH WIND       PRES   REMARKS
AMES           MOSUNNY   76  66  71 NW17      29.84S
DES MOINES     MOSUNNY   82  61  48 W17       29.84S HX  83
MARSHALLTOWN   CLOUDY    76  64  66 W16       29.82R
$$

IAZ004>006-015-016-023>025-035-036-172200-
   NORTH CENTRAL IOWA

CITY           SKY/WX    TMP DP  RH WIND       PRES   REMARKS
ESTHERVILLE    PTSUNNY   75  65  70 NW16      29.84R
FORT DODGE *   PTSUNNY   75  63  64 NW12G21   29.86S
MASON CITY     PTSUNNY   76  63  64 NW21G29   29.82R
$$

IAZ007>011-017>019-026>030-037>042-050>054-066-172200-
   NORTHEAST IOWA

CITY           SKY/WX    TMP DP  RH WIND       PRES   REMARKS
CEDAR RAPIDS   CLOUDY    78  66  66 W21G26    29.79S HX  80
CLINTON *      CLOUDY    77  68  73 W20G29    29.76S
DUBUQUE        CLOUDY    75  64  68 W16G23    29.75R
WATERLOO       CLOUDY    76  62  62 W15G24    29.78R
$$

IAZ064-065-067-068-078-172200-
   EAST CENTRAL IOWA

CITY           SKY/WX    TMP DP  RH WIND       PRES   REMARKS
DAVENPORT      MOSUNNY   81  63  54 W20G28    29.79S HX  82
IOWA CITY      CLOUDY    79  65  62 W20       29.81F HX  81
QUAD CITIES    PTSUNNY   82  66  58 W20G30    29.77S HX  84
$$

IAZ062-063-075>077-085>089-095>099-172200-
   SOUTHEAST IOWA

CITY           SKY/WX    TMP DP  RH WIND       PRES   REMARKS
BURLINGTON     MOSUNNY   83  65  54 W16G22    29.80S HX  85
OTTUMWA        MOSUNNY   83  61  47 W15       29.83F HX  83
$$

ABBREVIATIONS USED IN REMARKS
   TC - TEMPERATURES IN CELSIUS
  WCI - WIND CHILL INDEX
   HX - HEAT INDEX
  VSB - VISIBILITY
$$





USA.gov is the U.S. government's official web portal to all federal, state and local government web resources and services.